Weather History for Buffalo, WY

Change the Weather History Date:

Wednesday, April 24, 2013

  Actual Average Record
Temperature  
Mean Temperature 35 °F 46 °F  
Max Temperature 45 °F 57 °F 80 °F (2012)
Min Temperature 24 °F 35 °F 23 °F (2002)
Degree Days  
Heating Degree Days 30 19  
Month to date heating degree days 731 546  
Since 1 July heating degree days 6615 6736  
Cooling Degree Days 0 0  
Month to date cooling degree days 0 0  
Year to date cooling degree days 0 0  
Moisture  
Dew Point 25 °F    
Average Humidity 69    
Maximum Humidity 85    
Minimum Humidity 52    
Precipitation  
Precipitation T in 0.05 in 0.22 in (2003)
Month to date precipitation 0.66 0.84  
Year to date precipitation 1.35 2.53  
Sea Level Pressure  
Sea Level Pressure 30.16 in    
Wind  
Wind Speed 12 mph (NNW)    
Max Wind Speed 25 mph    
Max Gust Speed 37 mph    
Visibility 6 miles    
Events Fog , Snow    
T = Trace of Precipitation, MM = Missing Value Source: NWS Daily Summary

Daily Weather History Graph

Daily Weather History Graph

Search for Another Location

Airport:

Trip Planner

Search our weather history database for the weather conditions in past years. The results will help you decide how hot, cold, wet, or windy it might be!

Date:

Astronomy

Apr. 24, 2013 Rise Set
Actual Time 6:07 AM MDT 8:02 PM MDT
Civil Twilight 5:36 AM MDT 8:34 PM MDT
Nautical Twilight 4:58 AM MDT 9:12 PM MDT
Astronomical Twilight 4:16 AM MDT 9:54 PM MDT
Moon 7:08 PM MDT (4/24) 5:15 AM MDT (4/24)
Length of Visible Light 14h 57m
Length of Day
13h 55m
Waxing Gibbous, 98% of the Moon is Illuminated
Apr 24
Waxing Gibbous
Apr 25
Full
May 2
Last Quarter
May 9
New
May 17
First Quarter

Hourly Weather History & Observations

Time (MDT) Temp. Windchill Dew Point Humidity Pressure Visibility Wind Dir Wind Speed Gust Speed Precip Events Conditions
12:53 AM 28.9 °F 20.4 °F 21.0 °F 72% 30.19 in 10.0 mi WNW 9.2 mph - N/A   Clear
1:53 AM 26.1 °F 18.4 °F 18.0 °F 71% 30.19 in 10.0 mi WSW 6.9 mph - N/A   Scattered Clouds
2:53 AM 27.0 °F - 14.0 °F 58% 30.17 in 10.0 mi Calm Calm - N/A   Partly Cloudy
4:53 AM 25.0 °F 17.1 °F 14.0 °F 63% 30.17 in 10.0 mi WSW 6.9 mph - N/A   Mostly Cloudy
5:53 AM 28.9 °F 21.9 °F 15.1 °F 56% 30.18 in 10.0 mi NNW 6.9 mph - N/A   Overcast
6:04 AM 28.4 °F 15.1 °F 21.2 °F 74% 30.12 in 1.8 mi NNW 20.7 mph 26.5 mph 0.00 in Snow Light Snow
6:18 AM 28.4 °F 14.7 °F 24.8 °F 86% 30.12 in 1.0 mi NNW 21.9 mph 31.1 mph 0.00 in Snow Light Snow
6:24 AM 28.4 °F 15.4 °F 26.6 °F 93% 30.12 in 0.5 mi NNW 19.6 mph 32.2 mph 0.00 in Fog , Snow Snow
6:43 AM 28.4 °F 15.1 °F 24.8 °F 86% 30.13 in 0.8 mi NNW 20.7 mph 27.6 mph 0.00 in Snow Light Snow
6:51 AM 28.4 °F 15.1 °F 24.8 °F 86% 30.13 in 0.8 mi NNW 20.7 mph 27.6 mph 0.00 in Snow Light Snow
6:53 AM 28.0 °F 14.9 °F 25.0 °F 88% 30.22 in 0.8 mi NNW 19.6 mph 27.6 mph 0.00 in Snow Light Snow
7:34 AM 26.6 °F 15.7 °F 24.8 °F 93% 30.14 in 1.2 mi North 12.7 mph 23.0 mph 0.00 in Snow Light Snow
7:40 AM 26.6 °F 15.2 °F 24.8 °F 93% 30.15 in 0.8 mi NNW 13.8 mph 23.0 mph 0.00 in Snow Light Snow
7:53 AM 28.0 °F 15.3 °F 25.0 °F 88% 30.24 in 0.2 mi NNW 18.4 mph 25.3 mph 0.00 in Fog , Snow Snow
8:10 AM 28.4 °F 15.4 °F 24.8 °F 86% 30.15 in 1.2 mi NNW 19.6 mph 26.5 mph 0.00 in Snow Light Snow
8:14 AM 28.4 °F 15.8 °F 24.8 °F 86% 30.15 in 2.0 mi NNW 18.4 mph 26.5 mph 0.00 in Snow Light Snow
8:21 AM 28.4 °F 16.6 °F 24.8 °F 86% 30.15 in 9.0 mi North 16.1 mph 25.3 mph 0.00 in   Mostly Cloudy
8:28 AM 28.4 °F 16.2 °F 24.8 °F 86% 30.15 in 10.0 mi North 17.3 mph 25.3 mph 0.00 in   Mostly Cloudy
8:53 AM 28.9 °F 15.4 °F 26.1 °F 89% 30.25 in 2.0 mi North 21.9 mph - 0.00 in Snow Light Snow
9:01 AM 28.4 °F 15.1 °F 26.6 °F 93% 30.16 in 1.2 mi North 20.7 mph - 0.00 in Snow Light Snow
9:04 AM 28.4 °F 15.1 °F 26.6 °F 93% 30.16 in 0.8 mi North 20.7 mph 25.3 mph 0.00 in Snow Light Snow
9:20 AM 28.4 °F 15.8 °F 24.8 °F 86% 30.16 in 1.0 mi North 18.4 mph 27.6 mph 0.00 in Snow Light Snow
9:26 AM 28.4 °F 15.4 °F 24.8 °F 86% 30.16 in 2.0 mi North 19.6 mph 25.3 mph 0.00 in Snow Light Snow
9:34 AM 28.4 °F 15.4 °F 24.8 °F 86% 30.16 in 6.0 mi North 19.6 mph 24.2 mph 0.00 in   Mostly Cloudy
9:53 AM 28.9 °F 15.8 °F 25.0 °F 85% 30.23 in 10.0 mi North 20.7 mph 25.3 mph 0.00 in   Mostly Cloudy
10:09 AM 30.2 °F 17.4 °F 24.8 °F 80% 30.16 in 10.0 mi North 20.7 mph - 0.00 in   Mostly Cloudy
10:34 AM 30.2 °F 17.1 °F 26.6 °F 86% 30.16 in 9.0 mi NNW 21.9 mph 34.5 mph 0.00 in   Mostly Cloudy
10:53 AM 32.0 °F 19.5 °F 26.1 °F 79% 30.23 in 10.0 mi NNW 21.9 mph 31.1 mph 0.00 in   Mostly Cloudy
11:03 AM 32.0 °F 20.5 °F 26.6 °F 80% 30.15 in 10.0 mi North 18.4 mph 26.5 mph 0.00 in   Scattered Clouds
11:26 AM 32.0 °F 19.5 °F 26.6 °F 80% 30.16 in 10.0 mi NNW 21.9 mph 26.5 mph 0.00 in   Mostly Cloudy
11:46 AM 33.8 °F 22.5 °F 26.6 °F 75% 30.16 in 10.0 mi North 19.6 mph 26.5 mph 0.00 in   Overcast
11:51 AM 32.0 °F 19.2 °F 26.6 °F 80% 30.16 in 10.0 mi North 23.0 mph - 0.00 in   Overcast
11:53 AM 32.0 °F 19.8 °F 27.0 °F 82% 30.23 in 10.0 mi North 20.7 mph - 0.00 in   Overcast
11:59 AM 32.0 °F 19.5 °F 26.6 °F 80% 30.17 in 2.5 mi NNW 21.9 mph 31.1 mph 0.00 in Snow Light Snow
12:01 PM 32.0 °F 19.8 °F 26.6 °F 80% 30.17 in 2.0 mi NNW 20.7 mph 31.1 mph 0.00 in Snow Light Snow
12:04 PM 30.2 °F 16.8 °F 26.6 °F 86% 30.17 in 1.8 mi NNW 23.0 mph 31.1 mph 0.00 in Snow Light Snow
12:08 PM 32.0 °F 19.8 °F 26.6 °F 80% 30.17 in 2.0 mi North 20.7 mph 26.5 mph 0.00 in Snow Light Snow
12:16 PM 32.0 °F 20.1 °F 26.6 °F 80% 30.17 in 1.8 mi NNW 19.6 mph 26.5 mph 0.00 in Snow Light Snow
12:18 PM 32.0 °F 19.8 °F 26.6 °F 80% 30.17 in 2.0 mi NNW 20.7 mph 26.5 mph 0.00 in Snow Light Snow
12:21 PM 32.0 °F 20.8 °F 28.4 °F 87% 30.17 in 3.0 mi NNW 17.3 mph 26.5 mph 0.00 in Snow Light Snow
12:33 PM 33.8 °F 23.9 °F 28.4 °F 81% 30.16 in 8.0 mi North 15.0 mph 25.3 mph 0.00 in   Mostly Cloudy
12:40 PM 33.8 °F 23.9 °F 28.4 °F 81% 30.16 in 10.0 mi NNW 15.0 mph 25.3 mph 0.00 in   Mostly Cloudy
12:53 PM 34.0 °F 23.4 °F 28.0 °F 79% 30.23 in 10.0 mi North 17.3 mph 26.5 mph 0.00 in   Mostly Cloudy
1:29 PM 35.6 °F 27.5 °F 26.6 °F 70% 30.16 in 10.0 mi NW 11.5 mph - N/A   Overcast
1:53 PM 35.1 °F 29.3 °F 28.0 °F 76% 30.23 in 10.0 mi NNW 6.9 mph - N/A   Overcast
2:08 PM 35.6 °F 29.2 °F 28.4 °F 75% 30.16 in 10.0 mi NNW 8.1 mph - N/A   Overcast
2:24 PM 35.6 °F 28.6 °F 26.6 °F 70% 30.16 in 10.0 mi WNW 9.2 mph - N/A   Overcast
2:53 PM 35.1 °F 31.0 °F 27.0 °F 72% 30.24 in 10.0 mi West 4.6 mph - N/A   Overcast
3:44 PM 35.6 °F - 26.6 °F 70% 30.15 in 10.0 mi Calm Calm - N/A   Overcast
3:53 PM 37.9 °F 31.5 °F 28.0 °F 68% 30.21 in 10.0 mi South 9.2 mph - N/A   Mostly Cloudy
4:53 PM 39.0 °F 31.8 °F 28.0 °F 65% 30.19 in 10.0 mi South 11.5 mph - N/A   Clear
5:53 PM 39.9 °F 33.4 °F 28.0 °F 63% 30.14 in 10.0 mi South 10.4 mph - N/A   Clear
6:53 PM 37.9 °F 28.9 °F 26.1 °F 62% 30.13 in 10.0 mi South 16.1 mph - N/A   Clear
7:53 PM 36.0 °F 27.5 °F 26.1 °F 67% 30.11 in 10.0 mi South 12.7 mph - N/A   Clear
8:53 PM 34.0 °F 25.0 °F 26.1 °F 73% 30.10 in 10.0 mi SSE 12.7 mph - N/A   Clear
9:53 PM 34.0 °F 27.2 °F 25.0 °F 70% 30.08 in 10.0 mi SE 8.1 mph - N/A   Clear
10:53 PM 28.9 °F 22.8 °F 23.0 °F 78% 30.06 in 10.0 mi WNW 5.8 mph - N/A   Clear
11:53 PM 36.0 °F 31.1 °F 19.9 °F 52% 30.01 in 10.0 mi SSW 5.8 mph - N/A   Clear